Regional Weather Roundup
Issued by NWS

Home | Current Version | Previous Version | Graphics & Text | Print | Product List | Glossary On
Versions: 1 2 3 4 5 6 7 8 9 10 11 12 13 14 15 16 17 18 19 20 21 22 23 24 25 26 27 28 29 30 31 32 33 34 35 36 37 38 39 40 41 42 43 44 45 46 47 48 49 50
000
ASUS43 KIND 261309
RWRIN

WEATHER ROUNDUP FOR INDIANA
NATIONAL WEATHER SERVICE INDIANAPOLIS IN
900 AM EDT SUN MAR 26 2017

NOTE: "FAIR" INDICATES FEW OR NO CLOUDS BELOW 12,000 FEET WITH NO
SIGNIFICANT WEATHER AND/OR OBSTRUCTIONS TO VISIBILITY.

* - STATION DOES NOT REPORT WEATHER SUCH AS PRECIPITATION OR FOG.

+ - STATION NOT QUALITY CONTROLLED BY THE NATIONAL WEATHER SERVICE.
    USE DATA WITH CAUTION...ESPECIALLY DEWPOINT AND RELATIVE
    HUMIDITY OBSERVATIONS.

INZ001>003-010>013-019-020-261400-
NORTHWEST INDIANA

CITY           SKY/WX    TMP DP  RH WIND       PRES   REMARKS
GARY /AIRPORT/ LGT RAIN  52  52 100 SE10      29.87S
KNOX *+        CLOUDY    50  45  81 SE10      29.90S
LA PORTE +     LGT RAIN  48  48  99 SE6       29.91S
MICHIGAN CITY+ RAIN      50  50 100 CALM      29.90S
MONTICELLO +   RAIN      55  53  95 S6        29.89S
RENSSELAER +   HVY RAIN  54  54 100 E9        29.89R
VALPARAISO     LGT RAIN  52  52 100 SE9       29.89S FOG

$$

LMZ046-743>745-261400-
SOUTHERN LAKE MICHIGAN

STATION/POSITION TIME  TEMP    WIND        PRES    WAVE
                       AIR SEA DIR/SP/G            HT
                 (UTC) (F)     (DEG/KT/KT) (MB)    (FT)
BURNS HARBOR     1240   52     140/ 10/ 15 1012.2S
MICHIGAN CITY    1240   50     130/  9/ 10   N/A

$$

INZ004-005-014>016-021>024-261400-
NORTH CENTRAL INDIANA

CITY           SKY/WX    TMP DP  RH WIND       PRES   REMARKS
ELKHART        RAIN      46  45  93 E6        29.92F
GOSHEN         LGT RAIN  47  43  86 E9        29.93S FOG
LOGANSPORT +   RAIN      54  54 100 S8        29.91S
PERU/GRISSOM   LGT RAIN  56  56 100 S10       29.90R
ROCHESTER +    LGT RAIN  52  52 100 SE6       29.92S
SOUTH BEND     LGT RAIN  46  32  58 E10       29.92S
WARSAW +       LGT RAIN  46  46 100 E8        29.92S

$$

INZ006>009-017-018-025>027-261400-
NORTHEAST INDIANA

CITY           SKY/WX    TMP DP  RH WIND       PRES   REMARKS
ANGOLA *+      CLOUDY    41  41 100 E8        29.97S
AUBURN +       RAIN      41  39  93 E8        29.98S
FORT WAYNE     LGT RAIN  43  41  93 E8        29.97S FOG
HUNTINGTON +   LGT RAIN  45  44  97 E5        29.95R
KENDALLVILLE + LGT RAIN  41  41 100 E6        29.96S

$$

INZ028-029-035-036-043>045-051>053-261400-
WEST CENTRAL INDIANA

CITY           SKY/WX    TMP DP  RH WIND       PRES   REMARKS
CRAWFORDSVL +  CLOUDY    54  54 100 SE8       29.90S
GREENCASTLE +  HVY RAIN  55  54  94 S6        29.91S VSB 1
LAFAYETTE      CLOUDY    56  56 100 S7        29.89R
TERRE HAUTE    LGT RAIN  57  54  89 S13       29.90S

$$

INZ030>032-037>040-046>048-054>057-064-065-261400-
CENTRAL INDIANA

CITY           SKY/WX    TMP DP  RH WIND       PRES   REMARKS
CP ATTERBURY + CLOUDY    57  54  88 S12       29.95R
COLUMBUS       CLOUDY    55  55 100 S12       29.95R
FRANKFORT +    CLOUDY    58  57  94 S7        29.92R
GREENWOOD *+   CLOUDY    57  57 100 S12       29.94R
INDIANAPOLIS   RAIN      56  55  97 SW7       29.92R FOG
-EAGLE CREEK   LGT RAIN  57  55  93 S3        29.91S FOG
KOKOMO +       RAIN      56  55  97 S13       29.93R
MARION +       LGT RAIN  55  54  96 S7        29.94S
MT COMFORT *+  CLOUDY    55  54  94 S13       29.93S
SHELBYVILLE    CLOUDY    59  54  83 S15       29.94R
ZIONSVILLE +   LGT RAIN  55  54  94 S9        29.92S

$$

INZ033-034-041-042-049-050-058-059-261400-
EAST CENTRAL INDIANA

CITY           SKY/WX    TMP DP  RH WIND       PRES   REMARKS
MUNCIE         LGT RAIN  58  55  90 S8        29.94R
RICHMOND +     DRIZZLE   54  54 100 S10       29.98R

$$

INZ060-061-067>069-081>083-085>088-261400-
SOUTHWEST INDIANA

CITY           SKY/WX    TMP DP  RH WIND       PRES   REMARKS
EVANSVILLE     LGT RAIN  57  54  89 S5        29.94R
HUNTINGBURG *+ LGT RAIN  57  55  93 S7        29.95R
WASHINGTON +   LGT RAIN N/A N/A N/A MISG      29.93R

$$

INZ062-063-066-070>080-084-089>092-261400-
SOUTH CENTRAL AND SOUTHEAST INDIANA

CITY           SKY/WX    TMP DP  RH WIND       PRES   REMARKS
BLOOMINGTON    LGT RAIN  57  54  89 S9        29.93R
MADISON *+     CLOUDY    55  54  94 S10       30.00S
SEYMOUR +      CLOUDY    59  57  94 S8        29.96

$$





USA.gov is the U.S. government's official web portal to all federal, state and local government web resources and services.